Weather in Brussels

Belgium     50°51′15″N   4°21′07″E
temp.,
°C
wind,
m/s
gust,
m/s
humid.,
%
clouds,
%
prec.,
mm/h
press.,
hPa
HPBL,
m
22 september, wed
wed2223:00+12ese226695 0.0 103133
02:00+12se2268100 0.0 103038
05:00+11sse1169100 0.0 102910
08:00+11se1168100 0.0 103014
11:00+16se2255100 0.0 1030354
14:00+19s1247100 0.0 1028781
17:00+20ssw224619 0.0 1026887
20:00+15ssw226199 0.0 102620
23 september, thu
thu2323:00+13ssw22696 0.0 102536
02:00+12sw34762 0.0 102483
05:00+10sw36818 0.0 1023133
08:00+10sw48825 0.0 1022180
11:00+16wsw58615 0.0 1021496
14:00+21w585128 0.0 10201155
17:00+21w5747100 0.0 10181458
20:00+17wnw3768100 0.0 1019436
24 september, fri
fri2423:00+14wsw36810 0.0 1019171
02:00+12wsw24900 0.0 101999
05:00+12sw35936 0.0 1018136
08:00+12sw37949 0.0 1019164
11:00+17sw57767 0.0 1018511
14:00+20wsw566328 0.0 10171127
17:00+21wsw56576 0.0 10161212
20:00+17wsw37770 0.0 1016232
25 september, sat
sat2523:00+14wsw37801 0.0 1017169
02:00+13sw36920 0.0 1017145
05:00+11sw36873 0.0 1016134
08:00+11ssw35845 0.0 1017119
11:00+17sw34572 0.0 1017358
14:00+21sw22425 0.0 1016798
17:00+22ssw124144 0.0 10151003
20:00+18e115934 0.0 101611
26 september, sun
sun2623:00+16se237095 0.0 101652
02:00+17se247195 0.0 101588
05:00+16sse227290 0.0 101441
08:00+14s347812 0.0 101479
11:00+20ssw466871 0.0 1015425
14:00+22ssw466374 0.0 1014792
17:00+24ssw465818 0.3 10131332
20:00+19ssw348093 1.4 101467